{"data":{"norad_id":66614,"epoch":"2026-09-20T02:17:10.806144Z","epoch_age_seconds":121468,"freshness":"FRESH","line1":"1 66614U 25270AC  26263.09526396  .00011927  00000+0  44219-3 0  9990","line2":"2 66614  43.0003  38.6274 0001221 281.5162  78.5552 15.27584981 47278","mean_motion":15.27584981,"eccentricity":0.0001221,"inclination_deg":43.0003,"raan_deg":38.6274,"arg_perigee_deg":281.5162,"mean_anomaly_deg":78.5552,"bstar":0.00044219,"rev_number":4727,"period_min":94.266441337839,"perigee_km":482.19643217305,"apogee_km":483.8719301755,"semimajor_km":6861.1711811743,"source":"CELESTRAK","updated_at":"2026-09-21T09:00:35.981294Z"}}